sat.trackr.live / text

‹ back to catalog

IRIDIUM 175

NORAD 43928 · 2019-002G

PAYLOAD ACTIVE UNKNOWN

§ Identity

Operator
Country
US
Launch date
2019-01-11
Launch site
AFWTR
Launch vehicle
Mass (kg)
RCS (m²)

Purposes: comms

External: N2YO · Heavens-Above · Gunter

§ Orbital elements

Epoch: 2026-05-24T21:59:55.860000Z

Period
99.75 min
Inclination
86.4492°
Eccentricity
0.0001650
Mean motion
14.43597594 rev/d
Perigee alt
745.5 km
Apogee alt
747.8 km
Semi-major
7,124.8 km
B*
7.3345e-5
RAAN
300.2524°
Arg perigee
340.6846°
Mean anomaly
19.4292°
Rev number
39,562

§ Raw data

IRIDIUM 1751 43928U 19002G   26144.91661875  .00000268  00000+0  73345-4 0  99992 43928  86.4492 300.2524 0001650 340.6846  19.4292 14.43597594395623

JSON: /api/v1/satellites/43928 · /tle

For live sub-satellite position, see the globe view (requires WebGL).

§ Visibility from observer

Set your observer location to see the next 7 days of passes ≥ 10°. The values pass through the URL so the page stays shareable.

No JS? Fill the form by hand. The geolocation button needs JavaScript.